CW5920 Weather Reports


time (UTC)temp
F
wind
direction
speed
knots
gust
knots
rain 1hr
in
rain 24hr
in
rain mn
in
humidity
%
barometer
mb
20260506072515 62 23 2.6 5.2 0.00 0.00 0.00 81 1009.3
20260506071515 62 338 3.5 5.2 0.00 0.00 0.00 81 1009.3
20260506070555 62 315 4.3 8.7 0.00 0.00 0.00 81 1009.1
20260506062515 62 338 5.2 9.6 0.00 0.00 0.00 81 1009.1
20260506061535 63 338 6.1 10.4 0.00 0.00 0.00 80 1009.1
20260506060515 63 315 6.1 11.3 0.00 0.00 0.00 80 1009.1
20260506050515 66 315 6.1 12.2 0.00 0.00 0.00 78 1009.2
20260506044515 67 315 7.0 11.3 0.00 0.00 0.00 77 1008.8
20260506043517 67 315 5.2 8.7 0.00 0.00 0.00 77 1008.9
20260506042517 67 293 5.2 8.7 0.00 0.00 0.00 77 1009.1
20260506041517 68 315 5.2 9.6 0.00 0.00 0.00 76 1009.0
20260506040557 68 315 7.0 10.4 0.00 0.00 0.00 75 1009.0
20260506035537 68 315 6.1 9.6 0.00 0.00 0.00 75 1008.8
20260506034537 69 293 5.2 10.4 0.00 0.00 0.00 74 1008.5
20260506033515 69 293 7.0 11.3 0.00 0.00 0.00 73 1008.5
20260506032517 69 315 7.0 11.3 0.00 0.00 0.00 73 1008.0
20260506031537 70 315 6.1 9.6 0.00 0.00 0.00 73 1007.7
20260506030517 70 315 6.1 12.2 0.00 0.00 0.00 72 1007.5
20260506025517 71 315 7.0 11.3 0.00 0.00 0.00 72 1007.4
20260506024517 71 315 5.2 9.6 0.00 0.00 0.00 72 1007.3
20260506023517 72 293 7.8 13.9 0.00 0.00 0.00 71 1007.2
20260506022515 73 315 7.0 12.2 0.00 0.00 0.00 71 1006.9
20260506021517 74 315 5.2 10.4 0.00 0.00 0.00 70 1006.8
20260506020517 74 293 5.2 9.6 0.00 0.00 0.00 70 1006.6
20260506015517 75 315 6.1 10.4 0.00 0.00 0.00 69 1006.2
20260506014515 75 315 6.1 10.4 0.00 0.00 0.00 69 1006.0
20260506013517 76 293 5.2 8.7 0.00 0.00 0.00 69 1005.7
20260506012557 76 315 6.1 9.6 0.00 0.00 0.00 67 1005.5
20260506011517 76 293 1.7 4.3 0.00 0.00 0.00 67 1005.2
20260506010517 77 315 3.5 7.8 0.00 0.00 0.00 65 1005.2
20260506005517 77 293 5.2 11.3 0.00 0.00 0.00 65 1005.3
20260506004517 77 315 4.3 7.0 0.00 0.00 0.00 65 1004.7
20260506003557 78 315 4.3 9.6 0.00 0.00 0.00 64 1004.6
20260506002517 78 315 5.2 8.7 0.00 0.00 0.00 64 1004.8
20260506001517 79 315 3.5 9.6 0.00 0.00 0.00 63 1004.8
20260506000537 80 293 5.2 11.3 0.00 0.00 0.00 62 1005.0
20260505235517 81 293 7.0 11.3 0.00 0.00 0.00 61 1004.8
20260505234517 82 315 7.8 12.2 0.00 0.00 0.00 60 1004.5
20260505233537 84 315 6.1 11.3 0.00 0.00 0.00 59 1004.5
20260505232517 85 315 7.0 11.3 0.00 0.00 0.00 56 1004.2
20260505231517 86 293 5.2 8.7 0.00 0.00 0.00 51 1004.1
20260505230517 88 293 6.1 12.2 0.00 0.00 0.00 50 1003.9
20260505225517 90 293 2.6 6.1 0.00 0.00 0.00 53 1003.9
20260505224517 90 270 1.7 5.2 0.00 0.00 0.00 52 1003.8
20260505223517 90 270 2.6 5.2 0.00 0.00 0.00 51 1003.7
20260505222517 91 293 3.5 7.0 0.00 0.00 0.00 51 1003.8
20260505221517 91 293 0.9 7.0 0.00 0.00 0.00 48 1003.6
20260505220535 92 0.0 0.0 0.00 0.00 0.00 48 1003.5
20260505215517 92 0.0 0.0 0.00 0.00 0.00 46 1003.6
20260505214517 92 0.0 0.0 0.00 0.00 0.00 46 1003.7
20260505213537 92 0.0 0.0 0.00 0.00 0.00 50 1003.7
20260505212517 92 0.0 3.5 0.00 0.00 0.00 49 1003.8
20260505211517 91 0.0 0.9 0.00 0.00 0.00 49 1003.9
20260505210517 91 0.0 1.7 0.00 0.00 0.00 49 1004.2
20260505205517 91 0.0 1.7 0.00 0.00 0.00 49 1004.2
20260505204537 90 180 0.9 5.2 0.00 0.00 0.00 50 1004.6
20260505203517 90 0.0 1.7 0.00 0.00 0.00 52 1004.4
20260505202517 90 158 0.9 3.5 0.00 0.00 0.00 53 1004.5
20260505201517 90 203 0.9 4.3 0.00 0.00 0.00 52 1004.8
20260505200517 90 158 1.7 8.7 0.00 0.00 0.00 57 1004.7
20260505194517 88 180 1.7 10.4 0.00 0.00 0.00 60 1004.8
20260505193517 87 203 1.7 7.8 0.00 0.00 0.00 61 1004.8
20260505192517 88 180 3.5 8.7 0.00 0.00 0.00 63 1004.9
20260505191537 87 180 3.5 12.2 0.00 0.00 0.00 61 1004.9
20260505190517 86 158 2.6 7.8 0.00 0.00 0.00 64 1005.0
20260505185517 86 180 1.7 6.1 0.00 0.00 0.00 65 1005.1
20260505184517 85 203 1.7 5.2 0.00 0.00 0.00 65 1005.3
20260505183517 85 180 3.5 9.6 0.00 0.00 0.00 67 1005.4
20260505182537 84 180 2.6 11.3 0.00 0.00 0.00 69 1005.3
20260505181537 84 180 2.6 7.8 0.00 0.00 0.00 68 1005.4
20260505180637 83 158 4.3 9.6 0.00 0.00 0.00 71 1005.4